Regional Weather Roundup
Issued by NWS

Home | Current Version | Previous Version | Graphics & Text | Print | Product List | Glossary Off
Versions: 1 2 3 4 5 6 7 8 9 10 11 12 13 14 15 16 17 18 19 20 21 22 23 24 25 26 27 28 29 30 31 32 33 34 35 36 37 38 39 40 41 42 43 44 45 46 47 48 49 50

000
ASUS43 KMKX 161800
RWRWI

WISCONSIN REGIONAL WEATHER ROUNDUP
NATIONAL WEATHER SERVICE MILWAUKEE/SULLIVAN WI
100 PM CDT WED APR 16 2014

NOTE: "FAIR" INDICATES FEW OR NO CLOUDS BELOW 12,000 FEET WITH NO
SIGNIFICANT WEATHER AND/OR OBSTRUCTIONS TO VISIBILITY.

WIZ001-002-006>008-014>016-023>028-161900-
NORTHWEST WISCONSIN

CITY           SKY/WX    TMP DP  RH WIND       PRES   REMARKS
SUPERIOR ARPT  LGT SNOW  28  26  93 NE14G21   30.14F WCI  16
ASHLAND        SNOW      27  26  96 E14       30.17F VSB 1/2 WCI  16
6HR MIN TEMP:  22; 6HR MAX TEMP:  27; 6HR PCP:  0.05;

HAYWARD        HVY SNOW  28  25  88 E10       30.07F VSB 1/4 WCI  19
6HR MIN TEMP:  25; 6HR MAX TEMP:  28; 6HR PCP:  0.14;

SIREN          HVY SNOW  29  28  95 E8        30.03F VSB 1/4 WCI  21
RICE LAKE      CLOUDY    31  26  82 E17G28    30.03S WCI  19
LADYSMITH      LGT SNOW  30  27  91 E15       30.08F VSB 1   WCI  19
EAU CLAIRE     CLOUDY    39  28  64 E16       29.97F WCI  30
6HR MIN TEMP:  29; 6HR MAX TEMP:  40; 6HR PCP: TRACE;

MENOMONIE      MOCLDY    35  28  76 NE15      29.98F WCI  25
NEW RICHMOND   CLOUDY    32  27  81 E17G25    29.94F WCI  21
OSCEOLA        FLURRIES  31  29  92 E12G18    29.98F WCI  22
$$

WIZ003>005-009-010-017-018-161900-
NORTH CENTRAL WISCONSIN

CITY           SKY/WX    TMP DP  RH WIND       PRES   REMARKS
WOODRUFF       SNOW      29  24  81 SE13      30.15F VSB 1/2 WCI  19
RHINELANDER    SNOW      26  24  92 E14       30.15F VSB 1/4 WCI  14
6HR MIN TEMP:  17; 6HR MAX TEMP:  26; 6HR PCP:  0.09;

EAGLE RIVER    SNOW      26  22  84 SE9       30.18S VSB 1/2 WCI  17
LAND O LAKES   SNOW      27  23  87 SE9       30.20F VSB 1/2 WCI  17
PHILLIPS       SNOW      26  24  91 E13       30.09F VSB 1/2 WCI  15
TOMAHAWK       SNOW      28  25  89 E10       30.12F VSB 1/2 WCI  19
MEDFORD        CLOUDY    30  26  83 E12G22    30.05F WCI  21
MERRILL        LGT SNOW  30  27  87 CALM      30.12F
$$

WIZ029-030-035-036-043>047-161900-
CENTRAL WISCONSIN

CITY           SKY/WX    TMP DP  RH WIND       PRES   REMARKS
WAUSAU         CLOUDY    32  27  81 E20       30.10F WCI  20
6HR MIN TEMP:  24; 6HR MAX TEMP:  32; 6HR PCP:  0.01;

MOSINEE        NOT AVBL
MARSHFIELD     PTSUNNY   35  27  72 SE21G29   30.04F WCI  24
6HR MIN TEMP:  27; 6HR MAX TEMP:  35; 6HR PCP: TRACE;

STEVENS POINT  PTSUNNY   34  26  71 E18G24    30.12F WCI  23
WAUPACA        PTSUNNY   43  27  52 SE17G30   30.17F
WAUTOMA        NOT AVBL
WISC RAPIDS    FAIR      40  26  57 SE15G28   30.09F WCI  32
6HR MIN TEMP:  28; 6HR MAX TEMP:  40; 6HR PCP: TRACE;

CAMP DOUGLAS   NOT AVBL
$$

WIZ011>013-019>022-031-037>040-048>050-161900-
NORTHEAST WISCONSIN

CITY           SKY/WX    TMP DP  RH WIND       PRES   REMARKS
ANTIGO         LGT SNOW  28  26  89 E14       30.15F VSB 1   WCI  17
STURGEON BAY   CLOUDY    32  27  80 SE12G20   30.29F WCI  23
6HR MIN TEMP:  27; 6HR MAX TEMP:  34;

GREEN BAY      CLOUDY    37  28  70 SE23      30.24F WCI  26
6HR MIN TEMP:  27; 6HR MAX TEMP:  37; 6HR PCP: TRACE;

MANITOWOC      NOT AVBL
APPLETON       PTSUNNY   39  27  60 SE17      30.19F WCI  30
CLINTONVILLE   LGT SNOW  34  30  86 E10       30.21F WCI  26
OSHKOSH        PTSUNNY   42  28  57 SE17G24   30.17F
6HR MIN TEMP:  31; 6HR MAX TEMP:  43;

$$

WIZ032>034-041-042-053>061-161900-
SOUTHWEST WISCONSIN

CITY           SKY/WX    TMP DP  RH WIND       PRES   REMARKS
LA CROSSE      FAIR      54  28  36 S17G25    29.95F
6HR MIN TEMP:  34; 6HR MAX TEMP:  54;

SPARTA         FAIR      48  25  40 SE20G26   30.01F
VIROQUA        FAIR      47  30  51 S16G26    29.98F
BOSCOBEL         N/A     52  27  38 SE12G23   30.02F
6HR MIN TEMP:  35; 6HR MAX TEMP:  53;

PRAIRIE DU CHI FAIR      51  26  37 S23G30    29.99F
PLATTEVILLE    FAIR      49  31  50 SE30G36   30.07F
$$

WIZ056-057-062-063-064-067-068-161900-
SOUTH CENTRAL WISCONSIN

CITY           SKY/WX    TMP DP  RH WIND       PRES   REMARKS
BARABOO/DELLS  FAIR      45  26  48 S20G28    30.08F
LONE ROCK      NOT AVBL
WATERTOWN      SUNNY     45  27  49 S16G26    30.16F
MADISON        PTSUNNY   47  26  44 S26G38    30.13F
6HR MIN TEMP:  31; 6HR MAX TEMP:  47;

MIDDLETON      FAIR      48  26  41 S23G31    30.12F
MONROE         FAIR      47  30  51 S29G35    30.11F
6HR MIN TEMP:  30; 6HR MAX TEMP:  47;

JANESVILLE     SUNNY     48  25  40 S29G35    30.16F
$$

WIZ051-052-058>065-066-070>072-161900-
SOUTHEAST WISCONSIN

CITY           SKY/WX    TMP DP  RH WIND       PRES   REMARKS
MILWAUKEE      PTSUNNY   43  29  57 SE22G28   30.25F
6HR MIN TEMP:  32; 6HR MAX TEMP:  43;

WAUKESHA       MOSUNNY   43  25  49 SE20G26   30.21F
MILWAUKEE/TIMM SUNNY     43  25  49 MISG      30.23F
RACINE         CLOUDY    40  28  62 SE18G29   30.26F WCI  31
6HR MIN TEMP:  32; 6HR MAX TEMP:  40;

BURLINGTON     CLOUDY    44  26  47 SE20G26   30.21F
KENOSHA        PTSUNNY   43  27  53 SE22      30.23F
6HR MIN TEMP:  30; 6HR MAX TEMP:  44;

FOND DU LAC    MOSUNNY   44  28  53 SE21G30   30.17F
6HR MIN TEMP:  31; 6HR MAX TEMP:  44;

SHEBOYGAN      CLOUDY    38  29  70 SE18G26   30.25F WCI  28
6HR MIN TEMP:  31; 6HR MAX TEMP:  38;

WEST BEND      MOSUNNY   41  27  56 SE17G24   30.21F
JUNEAU         SUNNY     44  22  43 SE24G32   30.18F
$$

LSZ147-162-161900-
LAKE SUPERIOR

STATION/POSITION TIME  TEMP    WIND        PRES    WAVE
                       AIR SEA DIR/SP/G            HT/PER
                 (UTC) (F)     (DEG/KT/KT) (MB)    (FT/S)
DEVILS ISLAND    1700   28     100/ 10/ 11 1025.4R
PORT WING        1740   27      40/ 17/ 19 1022.0F
SAXON HARBOR     1700           70/  7/  9 1023.0F
$$

LMZ867-665-643>646-161900-
LAKE MICHIGAN

STATION/POSITION TIME  TEMP    WIND        PRES    WAVE
                       AIR SEA DIR/SP/G            HT/PER
                 (UTC) (F)     (DEG/KT/KT) (MB)    (FT/S)
NORTHPORT PIER   1700   33     150/ 11/ 17 1026.8F
SISTER BAY       1723   36     180/ 19/ 24   N/A
KEWAUNEE LAKESHO 1600   33     140/ 15/ 20 1026.8F
SHEBOYGAN LAKESH 1700   35     150/ 21/ 24 1025.6F
PORT WASHINGTON  1740   37     150/ 17/ 24 1024.7F
MILWAUKEE LAKESH 1700   35     150/ 23/ 26   N/A
KENOSHA   LAKESH 1700   37     150/ 25/ 28   N/A
$$

TC  - TEMPERATURE IN CELSIUS
VSB - VISIBILITY IN STATUTE MILES
WCI - WIND CHILL INDEX
HX  - HEAT INDEX




USA.gov is the U.S. government's official web portal to all federal, state and local government web resources and services.